Location: Makakahi
(40.6833°S, 175.6000°E)
Time: 23:07:42
(UTC+00:00)

FENGYUN 1C DEB - Pass Details

Date: 07 December 2024
Orbit: 812 x 877 km, 98.8° (Epoch: 19 January)

Event Time Altitude Azimuth Distance (km) Brightness Sun altitude
Rises 08:34:10 0° 161° (SSE) 3,378 ? -9.3°
Reaches altitude 10° 08:36:37 10° 154° (SSE) 2,444 ? -9.7°
Maximum altitude 08:41:50 47° 80° (E) 1,098 ? -10.4°
Drops below altitude 10° 08:47:01 10° 7° (N) 2,446 ? -11.1°
Enters shadow 08:48:11 - 4° (N) 2,888 ? -11.3°
